M I D A S
Marine Information and Data Acquisition System
Tripno 1856 of the Zeeleeuw from 2010-04-07 09:01:31 to 2010-04-07 14:18:54
Back to CruiseResearch ActivitiesStationsMapUnderway DataData graphs

EquipmentUnitsComments
TimeDGPSUTC
LatitudeDGPSDM.mWGS84
LongitudeDGPSDM.mWGS84
SpeedMeteo Stationm/sRelative wind speed
DirectionMeteo StationdegRelative wind direction
TemperatureMeteo Stationdeg CelciusAir temperature
PressureMeteo StationPaAtmospheric pressure
HumidityMeteo Station%Relative humidity
Missing or incorrect values are displayed as -999
Metereological data collected by the RV Zeeleeuw from 2010-04-07 06:36:08 to 2010-04-07 14:20:56
                                                                                    Next 1000 lines
Time Latitude Longitude Speed Direction Temperature Pressure Humidity
2010-04-07 06:36:18 51°13.666 2°55.96 0.2 346 8.7 101440 38
2010-04-07 06:36:23 51°13.665 2°55.96 0.1 354 8.7 101440 38
2010-04-07 06:36:28 51°13.665 2°55.96 0.2 353 8.7 101440 38
2010-04-07 06:36:33 51°13.665 2°55.96 0.1 343 8.7 101440 38
2010-04-07 06:36:38 51°13.666 2°55.961 2 340 8.7 101450 38
2010-04-07 06:36:43 51°13.666 2°55.961 1.2 352 8.7 101450 38
2010-04-07 06:36:48 51°13.666 2°55.961 1.4 354 8.7 101440 38
2010-04-07 06:36:53 51°13.666 2°55.961 1.6 349 8.7 101440 38
2010-04-07 06:36:58 51°13.666 2°55.961 1.7 354 8.7 101440 37
2010-04-07 06:37:03 51°13.666 2°55.961 2 359 8.7 101440 37
2010-04-07 06:37:08 51°13.666 2°55.961 1.3 350 8.7 101440 37
2010-04-07 06:37:13 51°13.666 2°55.961 0.9 341 8.7 101440 37
2010-04-07 06:37:18 51°13.666 2°55.961 1.3 335 8.7 101440 37
2010-04-07 06:37:23 51°13.666 2°55.961 1.3 350 8.7 101440 37
2010-04-07 06:37:28 51°13.666 2°55.961 1.2 352 8.7 101440 37
2010-04-07 06:37:33 51°13.666 2°55.961 0.7 346 8.7 101440 37
2010-04-07 06:37:38 51°13.666 2°55.961 0.1 344 8.7 101440 38
2010-04-07 06:37:43 51°13.666 2°55.961 0.1 352 8.7 101440 38
2010-04-07 06:37:48 51°13.667 2°55.961 0.1 348 8.7 101440 38
2010-04-07 06:37:53 51°13.666 2°55.961 -999 338 8.7 101440 38
2010-04-07 06:37:59 51°13.666 2°55.961 -999 349 8.7 101440 38
2010-04-07 06:38:03 51°13.666 2°55.961 -999 342 8.7 101440 38
2010-04-07 06:38:09 51°13.666 2°55.961 1.9 349 8.7 101450 37
2010-04-07 06:38:13 51°13.666 2°55.961 1.8 351 8.7 101450 37
2010-04-07 06:38:19 51°13.666 2°55.961 2.1 350 8.7 101450 38
2010-04-07 06:38:23 51°13.666 2°55.961 1.5 350 8.7 101450 38
2010-04-07 06:38:28 51°13.667 2°55.961 0.4 347 8.7 101450 38
2010-04-07 06:38:33 51°13.667 2°55.961 0.1 345 8.7 101450 38
2010-04-07 06:38:39 51°13.667 2°55.961 0.1 343 8.7 101450 38
2010-04-07 06:38:44 51°13.667 2°55.96 -999 341 8.7 101450 38
2010-04-07 06:38:49 51°13.667 2°55.96 -999 343 8.7 101450 38
2010-04-07 06:38:53 51°13.667 2°55.961 -999 336 8.7 101450 38
2010-04-07 06:38:59 51°13.667 2°55.961 -999 340 8.7 101450 38
2010-04-07 06:39:04 51°13.667 2°55.96 -999 344 8.7 101450 38
2010-04-07 06:39:08 51°13.667 2°55.96 -999 343 8.7 101450 38
2010-04-07 06:39:14 51°13.667 2°55.961 -999 339 8.7 101450 38
2010-04-07 06:39:19 51°13.667 2°55.961 -999 342 8.7 101450 38
2010-04-07 06:39:24 51°13.667 2°55.961 -999 350 8.7 101450 38
2010-04-07 06:39:28 51°13.667 2°55.961 1.8 347 8.8 101450 38
2010-04-07 06:39:34 51°13.667 2°55.961 1.4 345 8.8 101450 38
2010-04-07 06:39:38 51°13.667 2°55.961 0.8 353 8.8 101450 38
2010-04-07 06:39:44 51°13.667 2°55.961 0.1 344 8.8 101450 38
2010-04-07 06:39:48 51°13.667 2°55.961 0.1 340 8.8 101450 38
2010-04-07 06:39:54 51°13.667 2°55.961 -999 345 8.8 101450 38
2010-04-07 06:39:58 51°13.667 2°55.961 -999 341 8.8 101450 38
2010-04-07 06:40:03 51°13.667 2°55.961 -999 347 8.8 101450 38
2010-04-07 06:40:09 51°13.665 2°55.961 0.1 350 8.8 101450 38
2010-04-07 06:40:14 51°13.664 2°55.96 0.1 283 8.8 101450 38
2010-04-07 06:40:18 51°13.664 2°55.96 1.8 350 8.8 101450 38
2010-04-07 06:40:23 51°13.663 2°55.96 1.3 339 8.8 101450 38
2010-04-07 06:40:29 51°13.663 2°55.961 0.9 341 8.8 101450 38
2010-04-07 06:40:34 51°13.663 2°55.961 1 342 8.8 101450 38
2010-04-07 06:40:38 51°13.663 2°55.961 1.1 341 8.8 101450 38
2010-04-07 06:40:43 51°13.663 2°55.961 1.2 342 8.8 101450 38
2010-04-07 06:40:49 51°13.663 2°55.961 0.9 348 8.8 101450 37
2010-04-07 06:40:53 51°13.663 2°55.961 0.6 344 8.8 101450 37
2010-04-07 06:40:59 51°13.663 2°55.961 0.1 347 8.8 101450 38
2010-04-07 06:41:04 51°13.662 2°55.961 0.1 337 8.8 101450 38
2010-04-07 06:41:09 51°13.662 2°55.961 -999 339 8.8 101450 38
2010-04-07 06:41:13 51°13.662 2°55.96 -999 343 8.8 101450 38
2010-04-07 06:41:19 51°13.662 2°55.961 -999 340 8.8 101450 38
2010-04-07 06:41:24 51°13.662 2°55.961 -999 343 8.8 101450 38
2010-04-07 06:41:28 51°13.662 2°55.961 0.1 347 8.8 101450 38
2010-04-07 06:41:34 51°13.662 2°55.961 0.1 351 8.8 101450 38
2010-04-07 06:41:39 51°13.662 2°55.961 0.1 346 8.8 101450 38
2010-04-07 06:41:44 51°13.662 2°55.961 0.1 -999 8.8 101450 38
2010-04-07 06:41:48 51°13.662 2°55.961 1.2 347 8.8 101450 38
2010-04-07 06:41:54 51°13.662 2°55.96 0.2 348 8.8 101450 38
2010-04-07 06:41:58 51°13.662 2°55.96 0.1 348 8.8 101450 38
2010-04-07 06:42:04 51°13.662 2°55.96 -999 357 8.8 101450 38
2010-04-07 06:42:08 51°13.662 2°55.96 -999 353 8.8 101450 38
2010-04-07 06:42:14 51°13.662 2°55.96 -999 343 8.8 101450 38
2010-04-07 06:42:18 51°13.662 2°55.96 -999 341 8.8 101450 38
2010-04-07 06:42:23 51°13.662 2°55.96 -999 340 8.8 101450 38
2010-04-07 06:42:28 51°13.662 2°55.96 -999 345 8.8 101450 38
2010-04-07 06:42:33 51°13.662 2°55.96 -999 349 8.8 101450 38
2010-04-07 06:42:38 51°13.662 2°55.96 1.1 351 8.8 101450 38
2010-04-07 06:42:43 51°13.662 2°55.96 1.1 347 8.8 101450 38
2010-04-07 06:42:49 51°13.662 2°55.96 1 342 8.8 101450 38
2010-04-07 06:42:54 51°13.662 2°55.96 1.5 351 8.8 101450 38
2010-04-07 06:42:58 51°13.662 2°55.96 1.4 352 8.8 101450 37
2010-04-07 06:43:03 51°13.662 2°55.96 1.4 349 8.8 101450 37
2010-04-07 06:43:09 51°13.662 2°55.96 1.1 357 8.8 101450 38
2010-04-07 06:43:13 51°13.662 2°55.96 0.1 351 8.8 101450 38
2010-04-07 06:43:19 51°13.662 2°55.96 0.1 348 8.8 101450 37
2010-04-07 06:43:24 51°13.662 2°55.961 -999 354 8.8 101450 37
2010-04-07 06:43:29 51°13.662 2°55.961 -999 351 8.8 101450 37
2010-04-07 06:43:33 51°13.662 2°55.961 -999 345 8.8 101450 37
2010-04-07 06:43:39 51°13.662 2°55.961 -999 341 8.8 101450 38
2010-04-07 06:43:44 51°13.662 2°55.96 -999 342 8.8 101450 38
2010-04-07 06:43:49 51°13.662 2°55.96 -999 343 8.8 101450 38
2010-04-07 06:43:53 51°13.662 2°55.96 -999 343 8.8 101450 38
2010-04-07 06:43:59 51°13.662 2°55.961 -999 354 8.8 101450 38
2010-04-07 06:44:04 51°13.662 2°55.961 -999 345 8.8 101450 38
2010-04-07 06:44:08 51°13.662 2°55.961 -999 342 8.9 101450 38
2010-04-07 06:44:14 51°13.662 2°55.961 -999 346 8.9 101450 38
2010-04-07 06:44:16 51°13.662 2°55.961 -999 346 8.9 101450 38
2010-04-07 06:44:23 51°13.661 2°55.964 -999 345 8.9 101450 38
2010-04-07 06:44:28 51°13.66 2°55.964 -999 345 8.9 101450 38
2010-04-07 06:44:34 51°13.66 2°55.963 -999 351 8.9 101450 38
2010-04-07 06:44:38 51°13.66 2°55.962 -999 350 8.9 101450 38
2010-04-07 06:44:43 51°13.659 2°55.961 -999 344 8.9 101450 38
2010-04-07 06:44:49 51°13.659 2°55.961 -999 344 8.9 101450 38
2010-04-07 06:44:53 51°13.659 2°55.96 -999 283 8.9 101450 38
2010-04-07 06:44:59 51°13.659 2°55.96 -999 338 8.9 101450 38
2010-04-07 06:45:03 51°13.659 2°55.959 -999 344 8.9 101450 38
2010-04-07 06:45:09 51°13.66 2°55.959 -999 346 8.9 101450 38
2010-04-07 06:45:13 51°13.66 2°55.959 -999 348 8.9 101450 38
2010-04-07 06:45:19 51°13.66 2°55.959 -999 349 8.9 101450 38
2010-04-07 06:45:23 51°13.66 2°55.959 -999 348 8.9 101450 38
2010-04-07 06:45:29 51°13.66 2°55.959 -999 347 8.9 101450 38
2010-04-07 06:45:33 51°13.66 2°55.959 -999 345 8.9 101450 38
2010-04-07 06:45:39 51°13.66 2°55.959 -999 349 8.9 101450 38
2010-04-07 06:45:44 51°13.66 2°55.959 1.3 345 8.9 101450 38
2010-04-07 06:45:49 51°13.66 2°55.959 0.4 341 8.9 101450 38
2010-04-07 06:45:53 51°13.66 2°55.959 0.1 341 8.9 101450 38
2010-04-07 06:45:59 51°13.66 2°55.959 0.1 346 8.9 101450 38
2010-04-07 06:46:04 51°13.661 2°55.959 1.6 346 8.9 101450 38
2010-04-07 06:46:08 51°13.661 2°55.96 1.8 353 8.9 101450 37
2010-04-07 06:46:14 51°13.66 2°55.96 1.6 346 8.9 101450 37
2010-04-07 06:46:19 51°13.66 2°55.96 1.6 349 8.9 101450 38
2010-04-07 06:46:24 51°13.66 2°55.96 1.5 348 8.9 101450 38
2010-04-07 06:46:28 51°13.66 2°55.96 1.5 349 8.9 101450 37
2010-04-07 06:46:34 51°13.66 2°55.96 0.1 352 8.9 101450 37
2010-04-07 06:46:38 51°13.66 2°55.96 0.1 347 8.9 101450 39
2010-04-07 06:46:43 51°13.66 2°55.961 -999 347 8.9 101450 39
2010-04-07 06:46:48 51°13.659 2°55.961 -999 351 8.9 101450 38
2010-04-07 06:46:54 51°13.658 2°55.961 -999 343 8.9 101450 38
2010-04-07 06:46:58 51°13.658 2°55.962 -999 345 8.9 101450 38
2010-04-07 06:47:03 51°13.658 2°55.962 -999 283 8.9 101450 38
2010-04-07 06:47:08 51°13.658 2°55.962 -999 343 8.9 101450 38
2010-04-07 06:47:14 51°13.658 2°55.961 -999 283 8.9 101450 38
2010-04-07 06:47:18 51°13.658 2°55.961 -999 346 8.9 101450 38
2010-04-07 06:47:23 51°13.657 2°55.961 -999 338 8.9 101450 38
2010-04-07 06:47:29 51°13.658 2°55.961 -999 344 8.9 101450 38
2010-04-07 06:47:34 51°13.659 2°55.961 -999 348 8.9 101450 38
2010-04-07 06:47:38 51°13.659 2°55.961 -999 351 9 101450 38
2010-04-07 06:47:43 51°13.659 2°55.961 -999 353 9 101450 38
2010-04-07 06:47:49 51°13.659 2°55.961 -999 343 9 101450 38
2010-04-07 06:47:53 51°13.659 2°55.961 -999 343 9 101450 38
2010-04-07 06:47:59 51°13.659 2°55.961 -999 343 8.9 101450 38
2010-04-07 06:48:03 51°13.659 2°55.961 -999 354 8.9 101450 38
2010-04-07 06:48:09 51°13.659 2°55.961 -999 350 9 101450 38
2010-04-07 06:48:13 51°13.659 2°55.961 -999 -999 9 101450 38
2010-04-07 06:48:19 51°13.659 2°55.96 -999 356 9 101450 38
2010-04-07 06:48:24 51°13.659 2°55.96 -999 344 9 101450 38
2010-04-07 06:48:29 51°13.659 2°55.96 -999 347 9 101450 38
2010-04-07 06:48:33 51°13.659 2°55.96 -999 344 9 101450 38
2010-04-07 06:48:39 51°13.659 2°55.96 -999 343 9 101450 38
2010-04-07 06:48:44 51°13.659 2°55.961 -999 348 9 101450 38
2010-04-07 06:48:48 51°13.659 2°55.961 -999 336 9 101450 37
2010-04-07 06:48:53 51°13.658 2°55.961 -999 355 9 101450 37
2010-04-07 06:48:59 51°13.659 2°55.961 -999 352 9 101450 38
2010-04-07 06:49:04 51°13.658 2°55.961 -999 350 9 101450 38
2010-04-07 06:49:08 51°13.658 2°55.961 -999 347 9 101450 38
2010-04-07 06:49:13 51°13.658 2°55.961 -999 340 9 101450 38
2010-04-07 06:49:18 51°13.658 2°55.961 -999 337 9 101450 38
2010-04-07 06:49:23 51°13.658 2°55.961 -999 347 9 101450 38
2010-04-07 06:49:28 51°13.658 2°55.961 -999 345 9 101450 38
2010-04-07 06:49:33 51°13.658 2°55.961 0.1 342 9 101450 38
2010-04-07 06:49:38 51°13.658 2°55.961 0.1 340 9 101450 38
2010-04-07 06:49:43 51°13.658 2°55.961 0.1 354 9 101450 38
2010-04-07 06:49:49 51°13.658 2°55.961 -999 352 9 101450 38
2010-04-07 06:49:53 51°13.658 2°55.961 -999 340 9 101450 38
2010-04-07 06:49:58 51°13.658 2°55.961 -999 339 9 101450 38
2010-04-07 06:50:03 51°13.66 2°55.961 -999 346 9 101450 38
2010-04-07 06:50:09 51°13.661 2°55.961 -999 346 9 101450 38
2010-04-07 06:50:14 51°13.662 2°55.962 -999 283 9 101450 38
2010-04-07 06:50:18 51°13.662 2°55.962 -999 344 9 101450 38
2010-04-07 06:50:23 51°13.662 2°55.962 -999 351 9 101450 38
2010-04-07 06:50:29 51°13.662 2°55.962 -999 350 9 101450 38
2010-04-07 06:50:33 51°13.662 2°55.962 -999 344 9 101450 38
2010-04-07 06:50:39 51°13.662 2°55.962 -999 341 9 101450 38
2010-04-07 06:50:44 51°13.663 2°55.962 -999 337 9 101450 38
2010-04-07 06:50:49 51°13.663 2°55.962 -999 341 9 101450 38
2010-04-07 06:50:53 51°13.663 2°55.962 -999 351 9 101450 38
2010-04-07 06:50:59 51°13.664 2°55.962 -999 337 9 101450 37
2010-04-07 06:51:04 51°13.664 2°55.962 -999 354 9 101450 37
2010-04-07 06:51:07 51°13.664 2°55.962 0.1 354 9 101450 38
2010-04-07 06:51:14 51°13.664 2°55.961 1.3 355 9 101450 38
2010-04-07 06:51:19 51°13.664 2°55.961 1.3 341 9 101450 38
2010-04-07 06:51:23 51°13.663 2°55.961 0.9 341 9 101450 38
2010-04-07 06:51:28 51°13.662 2°55.961 0.2 339 9 101450 37
2010-04-07 06:51:33 51°13.662 2°55.96 0.1 346 9 101450 37
2010-04-07 06:51:38 51°13.662 2°55.96 -999 341 9 101450 38
2010-04-07 06:51:43 51°13.662 2°55.96 -999 344 9 101450 38
2010-04-07 06:51:48 51°13.662 2°55.96 -999 346 9 101450 38
2010-04-07 06:51:53 51°13.662 2°55.96 -999 339 9 101450 38
2010-04-07 06:51:58 51°13.662 2°55.96 -999 338 9 101450 38
2010-04-07 06:52:03 51°13.662 2°55.96 -999 340 9 101450 38
2010-04-07 06:52:07 51°13.662 2°55.96 -999 340 9.1 101450 38
2010-04-07 06:52:13 51°13.662 2°55.96 -999 283 9.1 101450 38
2010-04-07 06:52:17 51°13.662 2°55.96 -999 356 9.1 101450 38
2010-04-07 06:52:23 51°13.662 2°55.96 -999 353 9.1 101450 38
2010-04-07 06:52:27 51°13.662 2°55.96 -999 350 9 101450 38
2010-04-07 06:52:33 51°13.662 2°55.96 -999 341 9 101450 38
2010-04-07 06:52:37 51°13.662 2°55.96 -999 337 9.1 101450 38
2010-04-07 06:52:43 51°13.662 2°55.959 -999 343 9.1 101450 38
2010-04-07 06:52:47 51°13.662 2°55.96 -999 352 9.1 101450 38
2010-04-07 06:52:53 51°13.662 2°55.959 1.3 349 9.1 101450 38
2010-04-07 06:52:57 51°13.662 2°55.96 1 334 9.1 101450 38
2010-04-07 06:53:03 51°13.662 2°55.959 1.6 336 9.1 101450 38
2010-04-07 06:53:09 51°13.662 2°55.96 1.4 339 9.1 101450 38
2010-04-07 06:53:13 51°13.662 2°55.96 1 342 9.1 101450 38
2010-04-07 06:53:18 51°13.662 2°55.96 0.2 343 9.1 101450 38
2010-04-07 06:53:23 51°13.662 2°55.96 0.1 345 9.1 101450 38
2010-04-07 06:53:29 51°13.662 2°55.96 -999 348 9.1 101450 38
2010-04-07 06:53:33 51°13.662 2°55.96 -999 344 9.1 101450 38
2010-04-07 06:53:37 51°13.662 2°55.96 -999 343 9.1 101450 37
2010-04-07 06:53:43 51°13.662 2°55.96 -999 343 9.1 101450 37
2010-04-07 06:53:47 51°13.661 2°55.959 -999 342 9.1 101450 38
2010-04-07 06:53:53 51°13.661 2°55.959 -999 345 9.1 101450 38
2010-04-07 06:53:59 51°13.661 2°55.959 -999 335 9.1 101460 38
2010-04-07 06:54:03 51°13.661 2°55.959 -999 337 9.1 101460 38
2010-04-07 06:54:07 51°13.661 2°55.959 -999 337 9.1 101450 38
2010-04-07 06:54:13 51°13.661 2°55.959 -999 283 9.1 101450 38
2010-04-07 06:54:19 51°13.661 2°55.959 -999 344 9.1 101450 38
2010-04-07 06:54:23 51°13.661 2°55.959 -999 343 9.1 101450 38
2010-04-07 06:54:27 51°13.661 2°55.959 -999 346 9.1 101450 38
2010-04-07 06:54:33 51°13.661 2°55.959 -999 340 9.1 101450 38
2010-04-07 06:54:37 51°13.661 2°55.959 -999 338 9.1 101450 38
2010-04-07 06:54:43 51°13.661 2°55.959 -999 337 9.1 101450 38
2010-04-07 06:54:47 51°13.661 2°55.959 -999 340 9.1 101450 38
2010-04-07 06:54:53 51°13.661 2°55.959 -999 342 9.1 101450 38
2010-04-07 06:54:57 51°13.661 2°55.959 -999 332 9.1 101450 38
2010-04-07 06:55:03 51°13.661 2°55.959 -999 340 9.1 101450 38
2010-04-07 06:55:07 51°13.661 2°55.959 -999 344 9.1 101450 38
2010-04-07 06:55:13 51°13.661 2°55.959 -999 337 9.1 101450 38
2010-04-07 06:55:17 51°13.661 2°55.959 -999 347 9.1 101450 38
2010-04-07 06:55:23 51°13.661 2°55.959 -999 338 9.1 101450 38
2010-04-07 06:55:27 51°13.661 2°55.959 -999 335 9.1 101450 38
2010-04-07 06:55:33 51°13.661 2°55.959 -999 344 9.1 101450 38
2010-04-07 06:55:37 51°13.661 2°55.959 -999 343 9.1 101450 38
2010-04-07 06:55:43 51°13.661 2°55.959 -999 342 9.1 101450 38
2010-04-07 06:55:47 51°13.661 2°55.959 -999 347 9.2 101450 38
2010-04-07 06:55:53 51°13.661 2°55.959 -999 336 9.2 101450 38
2010-04-07 06:55:57 51°13.661 2°55.959 -999 335 9.2 101450 38
2010-04-07 06:56:03 51°13.661 2°55.959 -999 338 9.2 101450 38
2010-04-07 06:56:07 51°13.661 2°55.959 -999 336 9.2 101450 38
2010-04-07 06:56:13 51°13.661 2°55.959 -999 283 9.2 101450 38
2010-04-07 06:56:17 51°13.661 2°55.959 -999 336 9.2 101450 37
2010-04-07 06:56:23 51°13.661 2°55.959 -999 339 9.2 101450 37
2010-04-07 06:56:27 51°13.661 2°55.959 -999 337 9.2 101450 38
2010-04-07 06:56:33 51°13.661 2°55.96 -999 340 9.2 101450 38
2010-04-07 06:56:37 51°13.661 2°55.96 -999 344 9.2 101450 38
2010-04-07 06:56:43 51°13.661 2°55.96 -999 340 9.2 101450 38
2010-04-07 06:56:47 51°13.661 2°55.96 -999 349 9.2 101450 38
2010-04-07 06:56:53 51°13.661 2°55.959 -999 340 9.2 101450 38
2010-04-07 06:56:59 51°13.661 2°55.96 1.4 338 9.2 101450 38
2010-04-07 06:57:03 51°13.661 2°55.96 2.1 336 9.2 101450 38
2010-04-07 06:57:07 51°13.661 2°55.96 1.8 340 9.2 101450 38
2010-04-07 06:57:13 51°13.661 2°55.959 1.5 332 9.2 101450 38
2010-04-07 06:57:19 51°13.661 2°55.959 2.1 340 9.3 101450 38
2010-04-07 06:57:23 51°13.661 2°55.96 1.9 345 9.3 101450 38
2010-04-07 06:57:27 51°13.661 2°55.96 1.4 346 9.2 101450 38
2010-04-07 06:57:33 51°13.661 2°55.96 0.4 353 9.2 101450 38
2010-04-07 06:57:37 51°13.661 2°55.96 0.1 349 9.3 101450 38
2010-04-07 06:57:43 51°13.661 2°55.96 0.1 355 9.3 101450 38
2010-04-07 06:57:47 51°13.661 2°55.96 -999 354 9.3 101450 38
2010-04-07 06:57:53 51°13.661 2°55.96 -999 348 9.3 101450 38
2010-04-07 06:57:57 51°13.661 2°55.96 -999 337 9.3 101450 38
2010-04-07 06:58:03 51°13.661 2°55.96 0.1 338 9.3 101450 38
2010-04-07 06:58:07 51°13.661 2°55.96 0.1 340 9.3 101450 38
2010-04-07 06:58:13 51°13.661 2°55.96 -999 283 9.3 101450 38
2010-04-07 06:58:17 51°13.661 2°55.96 -999 347 9.3 101450 38
2010-04-07 06:58:23 51°13.661 2°55.96 -999 345 9.3 101450 38
2010-04-07 06:58:27 51°13.661 2°55.96 -999 349 9.3 101450 38
2010-04-07 06:58:33 51°13.661 2°55.96 -999 340 9.3 101450 38
2010-04-07 06:58:37 51°13.661 2°55.96 -999 339 9.3 101450 38
2010-04-07 06:58:43 51°13.661 2°55.96 -999 350 9.3 101450 38
2010-04-07 06:58:49 51°13.661 2°55.96 -999 347 9.3 101450 38
2010-04-07 06:58:53 51°13.661 2°55.96 -999 346 9.3 101450 38
2010-04-07 06:58:57 51°13.661 2°55.96 -999 339 9.3 101450 37
2010-04-07 06:59:03 51°13.661 2°55.96 -999 337 9.3 101450 37
2010-04-07 06:59:09 51°13.661 2°55.96 -999 336 9.3 101450 38
2010-04-07 06:59:13 51°13.661 2°55.96 -999 342 9.3 101450 38
2010-04-07 06:59:17 51°13.661 2°55.96 -999 336 9.3 101450 38
2010-04-07 06:59:23 51°13.661 2°55.96 -999 351 9.3 101450 38
2010-04-07 06:59:27 51°13.661 2°55.96 -999 345 9.3 101450 38
2010-04-07 06:59:33 51°13.661 2°55.96 -999 346 9.3 101450 38
2010-04-07 06:59:39 51°13.661 2°55.961 -999 347 9.3 101450 38
2010-04-07 06:59:43 51°13.661 2°55.961 -999 339 9.3 101450 38
2010-04-07 06:59:47 51°13.661 2°55.961 -999 337 9.3 101450 38
2010-04-07 06:59:53 51°13.661 2°55.96 -999 337 9.3 101450 38
2010-04-07 06:59:59 51°13.661 2°55.96 -999 336 9.4 101450 38
2010-04-07 07:00:03 51°13.661 2°55.96 -999 342 9.4 101450 38
2010-04-07 07:00:07 51°13.661 2°55.96 -999 350 9.4 101450 38
2010-04-07 07:00:13 51°13.661 2°55.96 -999 352 9.4 101450 38
2010-04-07 07:00:17 51°13.662 2°55.96 -999 346 9.4 101450 38
2010-04-07 07:00:23 51°13.662 2°55.96 -999 352 9.4 101450 38
2010-04-07 07:00:27 51°13.662 2°55.96 -999 357 9.4 101460 38
2010-04-07 07:00:33 51°13.662 2°55.96 -999 356 9.4 101460 38
2010-04-07 07:00:37 51°13.662 2°55.96 -999 355 9.4 101450 38
2010-04-07 07:00:43 51°13.662 2°55.96 -999 358 9.4 101450 38
2010-04-07 07:00:47 51°13.662 2°55.961 -999 357 9.4 101460 38
2010-04-07 07:00:53 51°13.662 2°55.961 -999 353 9.4 101460 38
2010-04-07 07:00:57 51°13.662 2°55.96 -999 347 9.4 101450 38
2010-04-07 07:01:03 51°13.662 2°55.96 -999 348 9.4 101450 38
2010-04-07 07:01:07 51°13.662 2°55.96 -999 341 9.4 101460 38
2010-04-07 07:01:13 51°13.662 2°55.96 -999 343 9.4 101460 38
2010-04-07 07:01:17 51°13.662 2°55.96 -999 346 9.4 101450 38
2010-04-07 07:01:23 51°13.662 2°55.96 -999 339 9.4 101450 38
2010-04-07 07:01:29 51°13.662 2°55.96 -999 339 9.4 101450 38
2010-04-07 07:01:33 51°13.662 2°55.961 -999 348 9.4 101450 38
2010-04-07 07:01:38 51°13.662 2°55.96 -999 346 9.4 101460 37
2010-04-07 07:01:43 51°13.662 2°55.96 -999 353 9.4 101460 37
2010-04-07 07:01:49 51°13.662 2°55.96 -999 357 9.4 101450 38
2010-04-07 07:01:53 51°13.662 2°55.96 -999 356 9.4 101450 38
2010-04-07 07:01:57 51°13.661 2°55.96 -999 355 9.4 101450 38
2010-04-07 07:02:03 51°13.661 2°55.959 -999 349 9.4 101450 38
2010-04-07 07:02:07 51°13.661 2°55.959 -999 348 9.4 101460 38
2010-04-07 07:02:13 51°13.661 2°55.96 -999 350 9.4 101460 38
2010-04-07 07:02:19 51°13.662 2°55.959 -999 350 9.4 101460 38
2010-04-07 07:02:23 51°13.661 2°55.959 -999 348 9.4 101460 38
2010-04-07 07:02:27 51°13.661 2°55.959 -999 348 9.4 101460 38
2010-04-07 07:02:33 51°13.661 2°55.959 -999 349 9.4 101460 38
2010-04-07 07:02:37 51°13.661 2°55.959 -999 353 9.4 101450 38
2010-04-07 07:02:43 51°13.661 2°55.959 -999 356 9.4 101450 38
2010-04-07 07:02:47 51°13.662 2°55.959 -999 358 9.4 101450 38
2010-04-07 07:02:53 51°13.662 2°55.959 -999 352 9.4 101450 38
2010-04-07 07:02:58 51°13.662 2°55.959 -999 347 9.4 101450 38
2010-04-07 07:03:03 51°13.662 2°55.959 -999 354 9.4 101450 38
2010-04-07 07:03:08 51°13.662 2°55.959 -999 349 9.4 101460 38
2010-04-07 07:03:13 51°13.662 2°55.959 -999 352 9.4 101460 38
2010-04-07 07:03:18 51°13.662 2°55.959 -999 349 9.4 101460 38
2010-04-07 07:03:23 51°13.662 2°55.96 1.9 349 9.4 101460 38
2010-04-07 07:03:28 51°13.662 2°55.96 1.8 347 9.4 101450 38
2010-04-07 07:03:33 51°13.662 2°55.959 1.3 342 9.4 101450 38
2010-04-07 07:03:37 51°13.662 2°55.96 1.3 348 9.4 101460 38
2010-04-07 07:03:43 51°13.662 2°55.96 1.3 348 9.4 101460 38
2010-04-07 07:51:54 51°13.662 2°55.961 1.3 349 -999 -999 -999
2010-04-07 07:51:59 51°13.662 2°55.961 1.8 350 11.5 101480 37
2010-04-07 07:52:04 51°13.662 2°55.961 1.2 344 11.5 101480 37
2010-04-07 07:52:09 51°13.662 2°55.961 0.3 346 11.5 101480 38
2010-04-07 07:52:14 51°13.662 2°55.961 1.6 345 11.5 101480 38
2010-04-07 07:52:19 51°13.662 2°55.961 2.2 350 11.5 101480 38
2010-04-07 07:52:24 51°13.662 2°55.961 2.1 354 11.5 101480 38
2010-04-07 07:52:29 51°13.662 2°55.961 2.1 354 11.5 101480 39
2010-04-07 07:52:34 51°13.662 2°55.961 1.7 357 11.5 101480 39
2010-04-07 07:52:39 51°13.662 2°55.961 2.2 360 11.5 101480 39
2010-04-07 07:52:44 51°13.662 2°55.961 1.7 356 11.5 101480 39
2010-04-07 07:52:49 51°13.662 2°55.961 2.5 350 11.5 101480 38
2010-04-07 07:52:54 51°13.662 2°55.961 2 356 11.5 101480 38
2010-04-07 07:52:59 51°13.662 2°55.961 2.4 358 11.5 101480 38
2010-04-07 07:53:04 51°13.662 2°55.961 1.8 353 11.5 101480 38
2010-04-07 07:53:09 51°13.662 2°55.961 1.7 355 11.5 101490 38
2010-04-07 07:53:14 51°13.662 2°55.961 2.4 353 11.5 101490 38
2010-04-07 07:53:19 51°13.662 2°55.961 1.8 354 11.5 101480 38
2010-04-07 07:53:24 51°13.662 2°55.961 2.1 355 11.5 101480 38
2010-04-07 07:53:29 51°13.662 2°55.961 2 349 11.5 101480 39
2010-04-07 07:53:34 51°13.662 2°55.961 1.6 356 11.5 101480 39
2010-04-07 07:53:39 51°13.662 2°55.961 1.9 354 11.5 101490 38
2010-04-07 07:53:44 51°13.662 2°55.962 1.7 351 11.5 101490 38
2010-04-07 07:53:49 51°13.662 2°55.962 1.7 351 11.5 101490 39
2010-04-07 07:53:54 51°13.662 2°55.962 0.3 5 11.5 101490 39
2010-04-07 07:53:59 51°13.662 2°55.961 0.3 8 11.5 101490 38
2010-04-07 07:54:04 51°13.662 2°55.961 0.1 355 11.5 101490 38
2010-04-07 07:54:09 51°13.662 2°55.962 0.1 358 11.5 101490 38
2010-04-07 07:54:14 51°13.662 2°55.961 1.2 353 11.5 101490 38
2010-04-07 07:54:19 51°13.662 2°55.961 1.1 355 11.5 101480 38
2010-04-07 07:54:24 51°13.662 2°55.962 1.9 359 11.5 101480 38
2010-04-07 07:54:29 51°13.662 2°55.962 2.1 358 11.5 101480 38
2010-04-07 07:54:34 51°13.662 2°55.961 1.3 355 11.5 101480 38
2010-04-07 07:54:39 51°13.662 2°55.961 0.2 358 11.5 101490 38
2010-04-07 07:54:44 51°13.662 2°55.961 0.1 360 11.5 101490 38
2010-04-07 07:54:49 51°13.662 2°55.961 1.7 354 11.5 101490 37
2010-04-07 07:54:54 51°13.662 2°55.961 1.4 -999 11.5 101490 37
2010-04-07 07:54:59 51°13.662 2°55.961 0.2 357 11.5 101490 38
2010-04-07 07:55:04 51°13.662 2°55.961 1 352 11.5 101490 38
2010-04-07 07:55:09 51°13.662 2°55.961 1.9 352 11.5 101490 39
2010-04-07 07:55:14 51°13.662 2°55.961 1.5 358 11.5 101490 39
2010-04-07 07:55:19 51°13.662 2°55.961 1.8 351 11.5 101480 38
2010-04-07 07:55:24 51°13.661 2°55.961 0.6 355 11.5 101480 38
2010-04-07 07:55:29 51°13.662 2°55.961 1.2 353 11.5 101480 39
2010-04-07 07:55:34 51°13.661 2°55.961 0.9 5 11.5 101480 39
2010-04-07 07:55:39 51°13.661 2°55.961 0.2 9 11.5 101490 38
2010-04-07 07:55:44 51°13.661 2°55.961 0.1 358 11.5 101490 38
2010-04-07 07:55:49 51°13.661 2°55.961 0.1 2 11.5 101480 39
2010-04-07 07:55:54 51°13.661 2°55.961 -999 357 11.5 101480 39
2010-04-07 07:55:59 51°13.661 2°55.961 -999 354 11.5 101490 38
2010-04-07 07:56:04 51°13.662 2°55.962 0.8 353 11.5 101490 38
2010-04-07 07:56:09 51°13.661 2°55.961 0.4 354 11.5 101480 38
2010-04-07 07:56:14 51°13.661 2°55.961 0.1 358 11.5 101480 38
2010-04-07 07:56:19 51°13.661 2°55.961 0.1 350 11.5 101480 38
2010-04-07 07:56:24 51°13.661 2°55.961 0.9 353 11.5 101480 38
2010-04-07 07:56:29 51°13.661 2°55.961 2 352 11.5 101490 38
2010-04-07 07:56:34 51°13.661 2°55.961 1.4 -999 11.5 101490 38
2010-04-07 07:56:39 51°13.662 2°55.961 0.4 353 11.5 101490 38
2010-04-07 07:56:44 51°13.662 2°55.961 3 355 11.5 101490 38
2010-04-07 07:56:49 51°13.662 2°55.961 2.8 351 11.5 101480 39
2010-04-07 07:56:54 51°13.662 2°55.961 1.5 357 11.5 101480 39
2010-04-07 07:56:59 51°13.662 2°55.961 2 354 11.5 101490 38
2010-04-07 07:57:04 51°13.662 2°55.961 2.2 350 11.5 101490 38
2010-04-07 07:57:09 51°13.662 2°55.961 2 356 11.5 101490 39
2010-04-07 07:57:14 51°13.662 2°55.961 1.4 354 11.5 101490 39
2010-04-07 07:57:19 51°13.662 2°55.961 1.4 4 11.5 101480 36
2010-04-07 07:57:24 51°13.662 2°55.961 0.1 354 11.5 101480 36
2010-04-07 07:57:29 51°13.662 2°55.961 0.1 357 11.5 101480 38
2010-04-07 07:57:34 51°13.662 2°55.961 0.1 359 11.5 101480 38
2010-04-07 07:57:39 51°13.662 2°55.961 1.8 353 11.5 101480 38
2010-04-07 07:57:44 51°13.662 2°55.961 2.1 348 11.5 101480 38
2010-04-07 07:57:49 51°13.662 2°55.961 1.6 349 11.5 101480 38
2010-04-07 07:57:54 51°13.662 2°55.961 1.8 353 11.5 101480 38
2010-04-07 07:57:59 51°13.662 2°55.961 1.3 358 11.5 101490 38
2010-04-07 07:58:04 51°13.662 2°55.961 0.8 355 11.5 101490 38
2010-04-07 07:58:09 51°13.662 2°55.961 0.2 358 11.5 101480 38
2010-04-07 07:58:14 51°13.662 2°55.961 0.1 353 11.5 101480 38
2010-04-07 07:58:19 51°13.662 2°55.961 0.1 351 11.5 101480 38
2010-04-07 07:58:24 51°13.662 2°55.961 0.1 354 11.5 101480 38
2010-04-07 07:58:29 51°13.662 2°55.961 1.3 1 11.6 101490 38
2010-04-07 07:58:34 51°13.662 2°55.961 2.1 356 11.6 101490 38
2010-04-07 07:58:39 51°13.662 2°55.961 2.5 352 11.5 101490 38
2010-04-07 07:58:44 51°13.662 2°55.961 3.2 1 11.5 101490 38
2010-04-07 07:58:49 51°13.662 2°55.961 2.2 349 11.6 101490 38
2010-04-07 07:58:54 51°13.662 2°55.961 3.3 356 11.6 101490 38
2010-04-07 07:58:59 51°13.662 2°55.961 2.8 360 11.6 101490 39
2010-04-07 07:59:04 51°13.662 2°55.961 2.5 356 11.6 101490 39
2010-04-07 07:59:09 51°13.662 2°55.961 2.5 3 11.6 101480 37
2010-04-07 07:59:14 51°13.662 2°55.961 2.7 360 11.6 101480 37
2010-04-07 07:59:19 51°13.662 2°55.961 2.5 2 11.6 101490 39
2010-04-07 07:59:24 51°13.662 2°55.961 2.3 4 11.6 101490 39
2010-04-07 07:59:29 51°13.662 2°55.961 2.4 2 11.5 101480 38
2010-04-07 07:59:34 51°13.662 2°55.961 2.2 6 11.5 101480 38
2010-04-07 07:59:39 51°13.662 2°55.961 2.6 358 11.5 101490 38
2010-04-07 07:59:44 51°13.662 2°55.961 2.7 357 11.5 101490 38
2010-04-07 07:59:49 51°13.662 2°55.961 2.7 1 11.5 101480 38
2010-04-07 07:59:54 51°13.662 2°55.961 3.3 358 11.5 101480 38
2010-04-07 07:59:59 51°13.662 2°55.961 2.9 358 11.5 101480 37
2010-04-07 08:00:04 51°13.662 2°55.961 2.5 356 11.5 101480 37
2010-04-07 08:00:09 51°13.662 2°55.961 2.5 356 11.5 101480 38
2010-04-07 08:00:14 51°13.662 2°55.961 2.2 357 11.5 101480 38
2010-04-07 08:00:19 51°13.662 2°55.961 1.8 3 11.5 101480 39
2010-04-07 08:00:24 51°13.662 2°55.961 1.7 360 11.5 101480 39
2010-04-07 08:00:29 51°13.662 2°55.961 1.4 353 11.5 101480 38
2010-04-07 08:00:34 51°13.662 2°55.961 1.8 348 11.5 101480 38
2010-04-07 08:00:39 51°13.662 2°55.961 1.3 1 11.5 101480 38
2010-04-07 08:00:44 51°13.662 2°55.961 1 351 11.5 101480 38
2010-04-07 08:00:49 51°13.662 2°55.961 1.7 356 11.5 101480 38
2010-04-07 08:00:54 51°13.662 2°55.961 1.4 353 11.5 101480 38
2010-04-07 08:00:59 51°13.662 2°55.961 2 4 11.5 101480 38
2010-04-07 08:01:04 51°13.662 2°55.961 1.8 355 11.5 101480 38
2010-04-07 08:01:09 51°13.662 2°55.961 2.4 354 11.6 101490 39
2010-04-07 08:01:14 51°13.662 2°55.961 2.1 354 11.6 101490 39
2010-04-07 08:01:19 51°13.662 2°55.961 2.4 348 11.6 101480 39
2010-04-07 08:01:24 51°13.662 2°55.961 2.7 359 11.6 101480 39
2010-04-07 08:01:29 51°13.662 2°55.961 2.7 359 11.6 101480 38
2010-04-07 08:01:34 51°13.662 2°55.961 2.6 358 11.6 101480 38
2010-04-07 08:01:39 51°13.662 2°55.961 2.2 357 11.6 101480 38
2010-04-07 08:01:44 51°13.662 2°55.961 2.5 352 11.6 101480 38
2010-04-07 08:01:49 51°13.662 2°55.961 2.5 359 11.6 101480 39
2010-04-07 08:01:54 51°13.662 2°55.961 2.1 4 11.6 101480 39
2010-04-07 08:01:59 51°13.662 2°55.961 2.2 1 11.6 101480 38
2010-04-07 08:02:04 51°13.662 2°55.961 2.1 347 11.6 101480 38
2010-04-07 08:02:09 51°13.662 2°55.961 2 356 11.6 101480 39
2010-04-07 08:02:14 51°13.662 2°55.961 1.7 359 11.6 101480 39
2010-04-07 08:02:19 51°13.662 2°55.961 2.4 349 11.5 101480 37
2010-04-07 08:02:24 51°13.662 2°55.961 2.1 351 11.5 101480 37
2010-04-07 08:02:29 51°13.662 2°55.961 1.9 354 11.5 101480 38
2010-04-07 08:02:34 51°13.662 2°55.961 2.2 3 11.5 101480 38
2010-04-07 08:02:39 51°13.662 2°55.961 0.7 359 11.5 101480 38
2010-04-07 08:02:44 51°13.662 2°55.961 0.9 354 11.5 101480 38
2010-04-07 08:02:49 51°13.662 2°55.961 0.9 359 11.5 101480 38
2010-04-07 08:02:54 51°13.662 2°55.961 1.6 346 11.5 101480 38
2010-04-07 08:02:59 51°13.662 2°55.961 2.1 353 11.5 101480 38
2010-04-07 08:03:04 51°13.662 2°55.961 2.2 354 11.5 101480 38
2010-04-07 08:03:09 51°13.662 2°55.961 1.6 351 11.5 101480 38
2010-04-07 08:03:14 51°13.662 2°55.961 1.9 280 11.5 101480 38
2010-04-07 08:03:19 51°13.662 2°55.961 2.1 347 11.5 101480 38
2010-04-07 08:03:24 51°13.662 2°55.961 1.6 1 11.5 101480 38
2010-04-07 08:03:29 51°13.662 2°55.961 1.6 357 11.5 101490 38
2010-04-07 08:03:34 51°13.662 2°55.961 1.4 8 11.5 101490 38
2010-04-07 08:03:39 51°13.662 2°55.961 1.1 7 11.6 101480 38
2010-04-07 08:03:44 51°13.662 2°55.961 1.8 358 11.6 101480 38
2010-04-07 08:03:49 51°13.662 2°55.961 1.9 353 11.6 101480 39
2010-04-07 08:03:54 51°13.662 2°55.961 2.5 356 11.6 101480 39
2010-04-07 08:03:59 51°13.662 2°55.961 2.5 359 11.6 101480 39
2010-04-07 08:04:04 51°13.662 2°55.961 1.7 1 11.6 101480 39
2010-04-07 08:04:09 51°13.662 2°55.961 2 4 11.6 101480 39
2010-04-07 08:04:14 51°13.662 2°55.961 2.2 4 11.6 101480 39
2010-04-07 08:04:19 51°13.662 2°55.961 1.9 5 11.6 101480 38
2010-04-07 08:04:24 51°13.662 2°55.961 1.9 1 11.6 101480 38
2010-04-07 08:04:29 51°13.662 2°55.961 1.5 356 11.6 101480 39
2010-04-07 08:04:34 51°13.662 2°55.961 1.5 346 11.6 101480 39
2010-04-07 08:04:39 51°13.662 2°55.961 2.6 359 11.6 101490 39
2010-04-07 08:04:44 51°13.662 2°55.961 0.7 359 11.6 101490 39
2010-04-07 08:04:49 51°13.662 2°55.961 2 352 11.6 101480 38
2010-04-07 08:04:54 51°13.662 2°55.961 2.4 3 11.6 101480 38
2010-04-07 08:04:59 51°13.662 2°55.961 2 355 11.6 101490 38
2010-04-07 08:05:04 51°13.662 2°55.961 1.9 357 11.6 101490 38
2010-04-07 08:05:09 51°13.662 2°55.961 1.9 357 11.6 101480 39
2010-04-07 08:05:14 51°13.662 2°55.961 1.7 355 11.6 101480 39
2010-04-07 08:05:19 51°13.662 2°55.961 1.8 353 11.6 101480 38
2010-04-07 08:05:24 51°13.662 2°55.961 1.6 358 11.6 101480 38
2010-04-07 08:05:29 51°13.662 2°55.961 1.9 348 11.6 101480 38
2010-04-07 08:05:34 51°13.662 2°55.961 2 -999 11.6 101480 38
2010-04-07 08:05:39 51°13.662 2°55.961 2.2 360 11.6 101480 38
2010-04-07 08:05:44 51°13.662 2°55.961 1.6 5 11.6 101480 38
2010-04-07 08:05:49 51°13.662 2°55.961 1.8 357 11.6 101480 38
2010-04-07 08:05:54 51°13.662 2°55.961 1.7 355 11.6 101480 38
2010-04-07 08:05:59 51°13.662 2°55.96 2.1 354 11.6 101480 39
2010-04-07 08:06:03 51°13.662 2°55.96 1.4 353 11.6 101480 39
2010-04-07 08:06:09 51°13.662 2°55.96 1.5 358 11.7 101480 38
2010-04-07 08:06:14 51°13.662 2°55.96 2 353 11.7 101480 38
2010-04-07 08:06:18 51°13.662 2°55.96 1.9 359 11.7 101490 38
2010-04-07 08:06:24 51°13.662 2°55.96 1.3 347 11.7 101490 38
2010-04-07 08:06:29 51°13.662 2°55.96 1.9 348 11.7 101480 38
2010-04-07 08:06:35 51°13.662 2°55.961 1.9 356 11.7 101480 38
2010-04-07 08:06:39 51°13.661 2°55.961 2.2 3 11.7 101480 38
2010-04-07 08:06:44 51°13.661 2°55.961 1.9 2 11.7 101480 38
2010-04-07 08:06:49 51°13.661 2°55.961 2.3 2 11.7 101480 38
2010-04-07 08:06:54 51°13.661 2°55.961 1.9 356 11.7 101480 38
2010-04-07 08:06:58 51°13.661 2°55.961 2.2 358 11.7 101480 38
2010-04-07 08:07:04 51°13.661 2°55.962 1.7 358 11.7 101480 38
2010-04-07 08:07:09 51°13.661 2°55.962 1.7 358 11.7 101480 38
2010-04-07 08:07:15 51°13.66 2°55.962 1.5 359 11.7 101480 38
2010-04-07 08:07:19 51°13.66 2°55.962 1 2 11.6 101480 38
2010-04-07 08:07:24 51°13.66 2°55.962 1.5 359 11.6 101480 38
2010-04-07 08:07:28 51°13.66 2°55.962 2 3 11.7 101480 39
2010-04-07 08:07:34 51°13.66 2°55.962 1.5 360 11.7 101480 39
2010-04-07 08:07:39 51°13.66 2°55.962 1.8 355 11.7 101480 38
2010-04-07 08:07:44 51°13.66 2°55.962 1.9 351 11.7 101480 38
2010-04-07 08:07:48 51°13.66 2°55.962 2.4 354 11.7 101490 39
2010-04-07 08:07:54 51°13.66 2°55.962 1.5 6 11.7 101490 39
2010-04-07 08:07:59 51°13.66 2°55.962 1.2 354 11.7 101490 37
2010-04-07 08:08:04 51°13.66 2°55.962 1.6 2 11.7 101490 37
2010-04-07 08:08:08 51°13.66 2°55.962 1.6 351 11.7 101480 38
2010-04-07 08:08:15 51°13.66 2°55.962 1.4 3 11.7 101480 38
2010-04-07 08:08:19 51°13.66 2°55.962 1.2 357 11.7 101480 38
2010-04-07 08:08:24 51°13.66 2°55.961 1.3 358 11.7 101480 38
2010-04-07 08:08:29 51°13.66 2°55.961 1.3 351 11.7 101480 38
2010-04-07 08:08:34 51°13.661 2°55.961 1.3 2 11.7 101480 38
2010-04-07 08:08:39 51°13.661 2°55.961 1.4 355 11.7 101480 39
2010-04-07 08:08:44 51°13.661 2°55.961 1.2 354 11.7 101480 39
2010-04-07 08:08:49 51°13.661 2°55.961 1.4 354 11.7 101480 39
2010-04-07 08:08:55 51°13.661 2°55.961 1.6 354 11.7 101480 39
2010-04-07 08:08:59 51°13.661 2°55.961 1.3 3 11.7 101480 38
2010-04-07 08:09:04 51°13.661 2°55.961 1.2 4 11.7 101480 38
2010-04-07 08:09:09 51°13.661 2°55.961 1.2 360 11.7 101490 38
2010-04-07 08:09:14 51°13.661 2°55.961 0.2 357 11.7 101490 38
2010-04-07 08:09:19 51°13.661 2°55.961 0.1 359 11.8 101480 39
2010-04-07 08:09:24 51°13.661 2°55.961 0.1 356 11.8 101480 39
2010-04-07 08:09:29 51°13.661 2°55.961 0.1 356 11.8 101480 39
2010-04-07 08:09:34 51°13.661 2°55.961 0.3 354 11.8 101480 39
2010-04-07 08:09:39 51°13.661 2°55.96 0.1 1 11.8 101480 38
2010-04-07 08:09:44 51°13.661 2°55.96 1.1 356 11.8 101480 38
2010-04-07 08:09:49 51°13.661 2°55.961 1.6 358 11.8 101480 39
2010-04-07 08:09:54 51°13.661 2°55.961 1.8 4 11.8 101480 39
2010-04-07 08:09:59 51°13.661 2°55.961 1.6 4 11.8 101480 39
2010-04-07 08:10:04 51°13.661 2°55.961 1.3 4 11.8 101480 39
2010-04-07 08:10:09 51°13.661 2°55.961 1.2 358 11.8 101480 38
2010-04-07 08:10:14 51°13.661 2°55.961 1.2 357 11.8 101480 38
2010-04-07 08:10:20 51°13.661 2°55.961 1.8 1 11.8 101480 38
2010-04-07 08:10:25 51°13.661 2°55.961 1.4 358 11.8 101480 38
2010-04-07 08:10:29 51°13.661 2°55.96 1.8 354 11.8 101480 38
2010-04-07 08:10:35 51°13.661 2°55.961 2.1 353 11.8 101480 38
2010-04-07 08:10:40 51°13.661 2°55.961 1.6 1 11.8 101490 37
2010-04-07 08:10:45 51°13.661 2°55.961 1.9 11 11.8 101490 37
2010-04-07 08:10:49 51°13.661 2°55.961 1.3 355 11.8 101480 38
2010-04-07 08:10:55 51°13.661 2°55.96 2.3 350 11.8 101480 38
2010-04-07 08:10:59 51°13.661 2°55.96 2.3 1 11.9 101480 39
2010-04-07 08:11:04 51°13.661 2°55.96 1.7 15 11.9 101480 39
2010-04-07 08:11:09 51°13.661 2°55.96 1.3 357 11.9 101480 39
2010-04-07 08:11:15 51°13.662 2°55.96 1.7 357 11.9 101480 39
2010-04-07 08:11:19 51°13.662 2°55.96 1.5 -999 11.9 101490 38
2010-04-07 08:11:24 51°13.662 2°55.96 1.4 1 11.9 101490 38
2010-04-07 08:11:29 51°13.662 2°55.96 1.5 1 11.9 101480 38
2010-04-07 08:11:34 51°13.662 2°55.96 1.4 350 11.9 101480 38
2010-04-07 08:11:39 51°13.662 2°55.96 1.7 351 11.9 101480 38
2010-04-07 08:11:44 51°13.662 2°55.96 1.7 350 11.9 101480 38
2010-04-07 08:11:49 51°13.662 2°55.96 1.7 345 11.9 101480 38
2010-04-07 08:11:54 51°13.662 2°55.96 1.2 355 11.9 101480 38
2010-04-07 08:11:59 51°13.662 2°55.96 1.4 349 11.9 101480 38
2010-04-07 08:12:04 51°13.662 2°55.96 1.9 359 11.9 101480 38
2010-04-07 08:12:09 51°13.662 2°55.96 1.6 360 11.9 101480 39
2010-04-07 08:12:14 51°13.662 2°55.96 1.5 1 11.9 101480 39
2010-04-07 08:12:19 51°13.662 2°55.96 1.5 352 12 101480 39
2010-04-07 08:12:24 51°13.662 2°55.96 1.5 357 12 101480 39
2010-04-07 08:12:29 51°13.662 2°55.96 1.2 358 12 101480 39
2010-04-07 08:12:34 51°13.662 2°55.961 0.2 350 12 101480 39
2010-04-07 08:12:39 51°13.662 2°55.96 0.1 359 12 101480 39
2010-04-07 08:12:44 51°13.662 2°55.961 0.4 359 12 101480 39
2010-04-07 08:12:49 51°13.661 2°55.961 0.2 359 12 101480 37
2010-04-07 08:12:54 51°13.661 2°55.961 0.1 347 12 101480 37
2010-04-07 08:12:59 51°13.661 2°55.96 0.1 348 12 101480 38
2010-04-07 08:13:04 51°13.662 2°55.96 0.1 346 12 101480 38
2010-04-07 08:13:09 51°13.662 2°55.96 0.1 356 12 101480 38
2010-04-07 08:13:14 51°13.662 2°55.96 0.2 1 12 101480 38
2010-04-07 08:13:19 51°13.662 2°55.96 0.1 352 12 101480 38
2010-04-07 08:13:24 51°13.662 2°55.96 0.1 357 12 101480 38
2010-04-07 08:13:29 51°13.662 2°55.96 -999 352 12 101480 39
2010-04-07 08:13:34 51°13.662 2°55.96 0.7 349 12 101480 39
2010-04-07 08:13:39 51°13.662 2°55.96 1.2 348 12 101480 38
2010-04-07 08:13:44 51°13.662 2°55.96 0.3 352 12 101480 38
2010-04-07 08:13:49 51°13.662 2°55.96 0.1 352 12.1 101480 39
2010-04-07 08:13:54 51°13.662 2°55.96 0.1 352 12.1 101480 39
2010-04-07 08:13:59 51°13.662 2°55.96 -999 5 12.1 101490 39
2010-04-07 08:14:04 51°13.662 2°55.96 -999 348 12.1 101490 39
2010-04-07 08:14:09 51°13.662 2°55.96 0.1 353 12.1 101490 38
2010-04-07 08:14:14 51°13.662 2°55.96 1.7 353 12.1 101490 38
2010-04-07 08:14:19 51°13.662 2°55.96 1.6 359 12.1 101490 39
2010-04-07 08:14:24 51°13.662 2°55.96 1.4 349 12.1 101490 39
2010-04-07 08:14:29 51°13.662 2°55.96 1.6 353 12.1 101490 39
2010-04-07 08:14:34 51°13.662 2°55.961 1.8 348 12.1 101490 39
2010-04-07 08:14:39 51°13.662 2°55.961 1.6 349 12.1 101490 38
2010-04-07 08:14:44 51°13.662 2°55.961 1.9 353 12.1 101490 38
2010-04-07 08:14:49 51°13.662 2°55.961 1.8 353 12.1 101490 38
2010-04-07 08:14:54 51°13.662 2°55.961 1.1 2 12.1 101490 38
2010-04-07 08:14:59 51°13.662 2°55.961 2.1 352 12.1 101490 38
2010-04-07 08:15:04 51°13.662 2°55.961 1.9 351 12.1 101490 38
2010-04-07 08:15:09 51°13.662 2°55.961 2.5 355 12.1 101490 39
2010-04-07 08:15:14 51°13.662 2°55.961 1.8 355 12.1 101490 39
2010-04-07 08:15:19 51°13.662 2°55.961 1.4 353 12.2 101490 38
2010-04-07 08:15:24 51°13.662 2°55.961 1.5 358 12.2 101490 38
2010-04-07 08:15:29 51°13.662 2°55.961 1.4 356 12.2 101490 39
2010-04-07 08:15:34 51°13.662 2°55.961 1.9 359 12.2 101490 39
2010-04-07 08:15:39 51°13.663 2°55.961 2 4 12.2 101490 38
2010-04-07 08:15:45 51°13.662 2°55.961 1.4 356 12.2 101490 38
2010-04-07 08:15:49 51°13.662 2°55.961 1.8 351 12.2 101490 39
2010-04-07 08:15:54 51°13.662 2°55.961 1.9 13 12.2 101490 39
2010-04-07 08:15:59 51°13.662 2°55.961 1.3 12 12.2 101490 38
2010-04-07 08:16:04 51°13.662 2°55.961 1.6 357 12.2 101490 38
2010-04-07 08:16:09 51°13.662 2°55.962 2.1 350 12.2 101490 39
2010-04-07 08:16:15 51°13.662 2°55.962 1.6 5 12.2 101490 39
2010-04-07 08:16:19 51°13.662 2°55.962 1.3 352 12.2 101490 39
2010-04-07 08:16:24 51°13.662 2°55.962 1.8 353 12.2 101490 39
2010-04-07 08:16:29 51°13.662 2°55.962 1.4 353 12.3 101490 39
2010-04-07 08:16:34 51°13.662 2°55.962 1.4 358 12.3 101490 39
2010-04-07 08:16:39 51°13.662 2°55.962 1.8 358 12.3 101490 38
2010-04-07 08:16:44 51°13.662 2°55.962 1.6 353 12.3 101490 38
2010-04-07 08:16:49 51°13.662 2°55.962 1.9 359 12.3 101490 39
2010-04-07 08:16:54 51°13.662 2°55.962 2.7 5 12.3 101490 39
2010-04-07 08:16:59 51°13.661 2°55.962 2.5 8 12.3 101490 38
2010-04-07 08:17:04 51°13.661 2°55.962 2.9 7 12.3 101490 38
2010-04-07 08:17:09 51°13.661 2°55.962 2.8 11 12.3 101490 38
2010-04-07 08:17:14 51°13.661 2°55.962 1.8 356 12.3 101490 38
2010-04-07 08:17:19 51°13.661 2°55.962 2 14 12.3 101490 38
2010-04-07 08:17:24 51°13.661 2°55.962 2.3 8 12.3 101490 38
2010-04-07 08:17:29 51°13.661 2°55.962 2 2 12.3 101490 39
2010-04-07 08:17:34 51°13.66 2°55.962 1.6 7 12.3 101490 39
2010-04-07 08:17:39 51°13.66 2°55.963 1.8 3 12.3 101490 38
2010-04-07 08:17:44 51°13.66 2°55.963 1.2 360 12.3 101490 38
2010-04-07 08:17:49 51°13.66 2°55.963 1.6 16 12.3 101490 38
2010-04-07 08:17:54 51°13.66 2°55.963 2.4 15 12.3 101490 38
2010-04-07 08:17:59 51°13.66 2°55.962 2.7 17 12.3 101490 38
2010-04-07 08:18:05 51°13.66 2°55.963 3.3 15 12.3 101490 38
2010-04-07 08:18:09 51°13.661 2°55.963 3 14 12.3 101490 38
2010-04-07 08:18:14 51°13.661 2°55.963 2.1 5 12.3 101490 38
2010-04-07 08:18:19 51°13.661 2°55.962 2 10 12.4 101490 39
2010-04-07 08:18:25 51°13.661 2°55.962 2.1 22 12.4 101490 39
2010-04-07 08:18:29 51°13.661 2°55.96 1.6 15 12.3 101500 39
2010-04-07 08:18:34 51°13.662 2°55.955 1.4 27 12.3 101500 39
2010-04-07 08:18:39 51°13.663 2°55.952 1.4 18 12.4 101490 37
2010-04-07 08:18:44 51°13.663 2°55.952 1.1 3 12.4 101490 37
2010-04-07 08:18:49 51°13.662 2°55.954 1.5 17 12.4 101500 39
2010-04-07 08:18:54 51°13.662 2°55.955 1.9 21 12.4 101500 39
2010-04-07 08:18:59 51°13.662 2°55.956 1.7 22 12.4 101490 39
2010-04-07 08:19:04 51°13.662 2°55.956 1.1 20 12.4 101490 39
2010-04-07 08:19:09 51°13.662 2°55.956 1.1 12 12.4 101490 38
2010-04-07 08:19:14 51°13.662 2°55.956 0.2 16 12.4 101490 38
2010-04-07 08:19:19 51°13.662 2°55.956 0.1 354 12.4 101500 38
2010-04-07 08:19:24 51°13.662 2°55.956 0.1 5 12.4 101500 38
2010-04-07 08:19:29 51°13.662 2°55.956 -999 16 12.4 101500 39
2010-04-07 08:19:34 51°13.662 2°55.956 -999 24 12.4 101500 39
2010-04-07 08:19:39 51°13.662 2°55.957 0.4 7 12.4 101500 39
2010-04-07 08:19:44 51°13.662 2°55.957 0.2 355 12.4 101500 39
2010-04-07 08:19:49 51°13.662 2°55.958 0.1 15 12.4 101500 39
2010-04-07 08:19:54 51°13.662 2°55.958 0.1 6 12.4 101500 39
2010-04-07 08:19:59 51°13.662 2°55.958 -999 360 12.5 101500 39
2010-04-07 08:20:04 51°13.662 2°55.958 -999 360 12.5 101500 39
2010-04-07 08:20:09 51°13.662 2°55.958 -999 354 12.4 101500 38
2010-04-07 08:20:14 51°13.661 2°55.958 -999 358 12.4 101500 38
2010-04-07 08:20:19 51°13.661 2°55.959 -999 6 12.5 101500 39
2010-04-07 08:20:24 51°13.661 2°55.959 -999 7 12.5 101500 39
2010-04-07 08:20:29 51°13.661 2°55.959 -999 2 12.5 101500 39
2010-04-07 08:20:34 51°13.661 2°55.959 -999 358 12.5 101500 39
2010-04-07 08:20:39 51°13.661 2°55.959 -999 354 12.5 101500 39
2010-04-07 08:20:44 51°13.661 2°55.959 -999 356 12.5 101500 39
2010-04-07 08:20:49 51°13.661 2°55.959 -999 13 12.5 101500 39
2010-04-07 08:20:54 51°13.661 2°55.96 0.1 340 12.5 101500 39
2010-04-07 08:21:00 51°13.661 2°55.96 0.1 351 12.6 101500 39
2010-04-07 08:21:04 51°13.661 2°55.96 0.1 350 12.6 101500 39
2010-04-07 08:21:09 51°13.661 2°55.96 -999 350 12.6 101500 39
2010-04-07 08:21:14 51°13.661 2°55.959 1.4 277 12.6 101500 39
2010-04-07 08:21:19 51°13.661 2°55.959 0.9 347 12.6 101500 38
2010-04-07 08:21:24 51°13.661 2°55.959 0.1 360 12.6 101500 38
2010-04-07 08:21:29 51°13.661 2°55.959 0.1 350 12.6 101500 39
2010-04-07 08:21:34 51°13.662 2°55.959 -999 355 12.6 101500 39
2010-04-07 08:21:39 51°13.662 2°55.959 -999 351 12.6 101500 39
2010-04-07 08:21:44 51°13.662 2°55.959 -999 5 12.6 101500 39
2010-04-07 08:21:49 51°13.662 2°55.959 -999 3 12.6 101500 38
2010-04-07 08:21:54 51°13.662 2°55.96 -999 3 12.6 101500 38
2010-04-07 08:21:59 51°13.662 2°55.96 0.1 10 12.6 101500 39
2010-04-07 08:22:04 51°13.662 2°55.959 0.1 17 12.6 101500 39
2010-04-07 08:22:09 51°13.662 2°55.96 0.3 4 12.7 101500 39
2010-04-07 08:22:14 51°13.662 2°55.96 0.1 7 12.7 101500 39
2010-04-07 08:22:19 51°13.662 2°55.959 1.8 10 12.6 101500 39
2010-04-07 08:22:24 51°13.662 2°55.959 0.2 359 12.6 101500 39
2010-04-07 08:22:29 51°13.662 2°55.96 0.1 1 12.6 101500 39
2010-04-07 08:22:34 51°13.662 2°55.96 0.1 358 12.6 101500 39
2010-04-07 08:22:39 51°13.662 2°55.96 -999 3 12.6 101500 39
2010-04-07 08:22:44 51°13.662 2°55.96 -999 4 12.6 101500 39
2010-04-07 08:22:49 51°13.662 2°55.959 -999 353 12.7 101500 39
2010-04-07 08:22:54 51°13.662 2°55.959 0.9 3 12.7 101500 39
2010-04-07 08:22:59 51°13.662 2°55.959 2.1 355 12.6 101500 39
2010-04-07 08:23:04 51°13.662 2°55.959 1.4 358 12.6 101500 39
2010-04-07 08:23:09 51°13.662 2°55.959 2 353 12.6 101500 39
2010-04-07 08:23:14 51°13.662 2°55.959 2.1 355 12.6 101500 39
2010-04-07 08:23:19 51°13.662 2°55.959 1.9 355 12.7 101500 38
2010-04-07 08:23:24 51°13.662 2°55.959 1.4 359 12.7 101500 38
2010-04-07 08:23:29 51°13.662 2°55.959 1.2 357 12.7 101500 39
2010-04-07 08:23:34 51°13.662 2°55.959 1.4 359 12.7 101500 39
2010-04-07 08:23:39 51°13.662 2°55.96 1.5 351 12.7 101500 39
2010-04-07 08:23:44 51°13.662 2°55.96 0.8 354 12.7 101500 39
2010-04-07 08:23:49 51°13.662 2°55.96 1.2 354 12.7 101500 39
2010-04-07 08:23:54 51°13.662 2°55.96 0.8 352 12.7 101500 39
2010-04-07 08:23:59 51°13.662 2°55.96 1.9 350 12.7 101500 38
2010-04-07 08:24:04 51°13.662 2°55.96 1.5 353 12.7 101500 38
2010-04-07 08:24:09 51°13.662 2°55.959 0.9 352 12.7 101500 39
2010-04-07 08:24:14 51°13.662 2°55.959 1.1 347 12.7 101500 39
2010-04-07 08:24:19 51°13.662 2°55.959 1 360 12.7 101510 39
2010-04-07 08:24:24 51°13.662 2°55.959 0.1 355 12.7 101510 39
2010-04-07 08:24:29 51°13.661 2°55.959 0.1 352 12.7 101500 39
2010-04-07 08:24:34 51°13.66 2°55.961 -999 354 12.7 101500 39
2010-04-07 08:24:39 51°13.659 2°55.962 1 340 12.7 101500 39
2010-04-07 08:24:44 51°13.659 2°55.962 1.9 348 12.7 101500 39
2010-04-07 08:24:49 51°13.659 2°55.962 1.4 355 12.7 101500 39
2010-04-07 08:24:54 51°13.659 2°55.962 2.4 345 12.7 101500 39
2010-04-07 08:24:59 51°13.659 2°55.962 2.3 344 12.7 101500 39
2010-04-07 08:25:04 51°13.659 2°55.962 1.8 355 12.7 101500 39
2010-04-07 08:25:09 51°13.659 2°55.962 1.8 338 12.7 101500 39
2010-04-07 08:25:14 51°13.659 2°55.961 1.7 285 12.7 101500 39
2010-04-07 08:25:19 51°13.66 2°55.961 2.7 353 12.7 101500 39
2010-04-07 08:25:24 51°13.66 2°55.961 2.1 358 12.7 101500 39
2010-04-07 08:25:29 51°13.66 2°55.96 2.7 356 12.7 101500 39
2010-04-07 08:25:34 51°13.66 2°55.96 2.3 356 12.7 101500 39
2010-04-07 08:25:39 51°13.66 2°55.961 2.2 355 12.7 101500 39
2010-04-07 08:25:44 51°13.66 2°55.961 2.6 3 12.7 101500 39
2010-04-07 08:25:49 51°13.66 2°55.961 2.6 359 12.7 101500 39
2010-04-07 08:25:54 51°13.661 2°55.96 1.9 5 12.7 101500 39
2010-04-07 08:25:59 51°13.661 2°55.96 2.9 2 12.7 101500 38
2010-04-07 08:26:04 51°13.661 2°55.96 2.8 10 12.7 101500 38
2010-04-07 08:26:09 51°13.66 2°55.961 2.5 352 12.7 101500 39
2010-04-07 08:26:14 51°13.66 2°55.961 1.9 354 12.7 101500 39
2010-04-07 08:26:19 51°13.66 2°55.961 0.9 3 12.7 101500 39
2010-04-07 08:26:24 51°13.66 2°55.961 0.2 7 12.7 101500 39
2010-04-07 08:26:29 51°13.66 2°55.962 0.1 348 12.7 101500 39
2010-04-07 08:26:34 51°13.66 2°55.961 1.7 12 12.7 101500 39
2010-04-07 08:26:39 51°13.66 2°55.961 1.4 355 12.7 101510 38
2010-04-07 08:26:44 51°13.661 2°55.961 0.1 10 12.7 101510 38
2010-04-07 08:26:49 51°13.66 2°55.961 0.1 354 12.7 101500 39
2010-04-07 08:26:54 51°13.66 2°55.961 -999 346 12.7 101500 39
2010-04-07 08:26:59 51°13.661 2°55.96 1.1 340 12.7 101500 39
2010-04-07 08:27:04 51°13.661 2°55.96 1.1 345 12.7 101500 39
2010-04-07 08:27:09 51°13.661 2°55.96 2.3 349 12.7 101510 38
2010-04-07 08:27:14 51°13.661 2°55.96 0.9 283 12.7 101510 38
2010-04-07 08:27:19 51°13.662 2°55.96 1.7 350 12.8 101500 39
2010-04-07 08:27:24 51°13.662 2°55.959 1.4 355 12.8 101500 39
2010-04-07 08:27:29 51°13.662 2°55.959 1.4 352 12.8 101510 39
2010-04-07 08:27:34 51°13.662 2°55.959 1.9 352 12.8 101510 39
2010-04-07 08:27:39 51°13.662 2°55.959 1.8 348 12.8 101510 39
2010-04-07 08:27:44 51°13.662 2°55.959 1.9 350 12.8 101510 39
2010-04-07 08:27:49 51°13.662 2°55.959 2 350 12.8 101510 39
2010-04-07 08:27:54 51°13.662 2°55.959 2.2 349 12.8 101510 39
2010-04-07 08:27:59 51°13.663 2°55.958 1.7 349 12.8 101500 39
2010-04-07 08:28:04 51°13.663 2°55.958 1.9 350 12.8 101500 39
2010-04-07 08:28:09 51°13.662 2°55.958 2 342 12.8 101500 39
2010-04-07 08:28:14 51°13.663 2°55.959 2.3 351 12.8 101500 39
2010-04-07 08:28:19 51°13.663 2°55.958 2.2 349 12.8 101510 38
2010-04-07 08:28:25 51°13.663 2°55.958 1.8 6 12.8 101510 38
2010-04-07 08:28:29 51°13.663 2°55.959 1.7 358 12.8 101500 38
2010-04-07 08:28:34 51°13.663 2°55.959 0.2 355 12.8 101500 38
2010-04-07 08:28:39 51°13.663 2°55.958 0.1 359 12.8 101510 38
2010-04-07 08:28:44 51°13.664 2°55.958 1.3 353 12.8 101510 38
2010-04-07 08:28:49 51°13.664 2°55.958 2.4 348 12.8 101510 39
2010-04-07 08:28:54 51°13.664 2°55.958 1.7 351 12.8 101510 39
2010-04-07 08:28:59 51°13.664 2°55.958 2.4 350 12.8 101510 39
2010-04-07 08:29:04 51°13.664 2°55.958 1.6 353 12.8 101510 39
2010-04-07 08:29:09 51°13.664 2°55.958 0.9 356 12.8 101510 40
2010-04-07 08:29:14 51°13.664 2°55.958 0.1 358 12.8 101510 40
2010-04-07 08:29:19 51°13.664 2°55.958 0.1 353 12.8 101510 38
2010-04-07 08:29:24 51°13.664 2°55.958 -999 2 12.8 101510 38
2010-04-07 08:29:29 51°13.664 2°55.958 -999 11 12.8 101510 39
2010-04-07 08:29:34 51°13.663 2°55.958 -999 351 12.8 101510 39
2010-04-07 08:29:39 51°13.663 2°55.958 -999 6 12.8 101510 39
2010-04-07 08:29:44 51°13.663 2°55.958 1.7 4 12.8 101510 39
2010-04-07 08:29:49 51°13.663 2°55.958 1.8 10 12.8 101510 38
2010-04-07 08:29:54 51°13.663 2°55.958 0.4 5 12.8 101510 38
2010-04-07 08:29:59 51°13.663 2°55.959 0.8 351 12.8 101510 39
2010-04-07 08:30:04 51°13.663 2°55.959 2 353 12.8 101510 39
2010-04-07 08:30:09 51°13.663 2°55.959 2.2 353 12.9 101510 38
2010-04-07 08:30:14 51°13.663 2°55.958 1.9 5 12.9 101510 38
2010-04-07 08:30:19 51°13.663 2°55.958 1.9 356 12.9 101510 39
2010-04-07 08:30:24 51°13.663 2°55.958 3.1 359 12.9 101510 39
2010-04-07 08:30:29 51°13.663 2°55.958 3 351 12.9 101510 39
2010-04-07 08:30:34 51°13.663 2°55.958 2.1 356 12.9 101510 39
2010-04-07 08:30:39 51°13.664 2°55.958 1.5 5 12.9 101510 39
2010-04-07 08:30:44 51°13.664 2°55.958 0.1 2 12.9 101510 39
2010-04-07 08:30:49 51°13.664 2°55.957 0.1 8 12.9 101510 38
2010-04-07 08:30:54 51°13.665 2°55.957 -999 2 12.9 101510 38
2010-04-07 08:30:59 51°13.665 2°55.957 -999 356 12.9 101510 39
2010-04-07 08:31:05 51°13.665 2°55.956 -999 360 12.9 101510 39
2010-04-07 08:31:09 51°13.665 2°55.956 -999 352 12.9 101510 39
2010-04-07 08:31:14 51°13.665 2°55.956 -999 348 12.9 101510 39
2010-04-07 08:31:20 51°13.665 2°55.956 -999 359 12.9 101510 39
2010-04-07 08:31:24 51°13.665 2°55.956 -999 358 12.9 101510 39
2010-04-07 08:31:29 51°13.665 2°55.956 -999 359 12.9 101510 39
2010-04-07 08:31:34 51°13.665 2°55.956 -999 353 12.9 101510 39
2010-04-07 08:31:39 51°13.666 2°55.956 -999 356 12.9 101510 39
2010-04-07 08:31:44 51°13.666 2°55.955 -999 352 12.9 101510 39
2010-04-07 08:31:49 51°13.666 2°55.955 -999 354 12.9 101510 39
2010-04-07 08:31:54 51°13.666 2°55.955 0.1 345 12.9 101510 39
2010-04-07 08:31:59 51°13.666 2°55.955 0.3 4 12.9 101510 38
2010-04-07 08:32:04 51°13.666 2°55.955 0.1 2 12.9 101510 38
2010-04-07 08:32:09 51°13.667 2°55.956 0.1 359 12.9 101510 39
2010-04-07 08:32:14 51°13.668 2°55.958 -999 354 12.9 101510 39
2010-04-07 08:32:19 51°13.668 2°55.959 -999 -999 13 101510 39
2010-04-07 08:32:24 51°13.668 2°55.959 -999 2 13 101510 39
2010-04-07 08:32:29 51°13.669 2°55.959 -999 349 13 101510 38
2010-04-07 08:32:34 51°13.669 2°55.959 -999 39 13 101510 38
2010-04-07 08:32:39 51°13.67 2°55.959 -999 35 13 101510 39
2010-04-07 08:32:44 51°13.67 2°55.959 -999 55 13 101510 39
2010-04-07 08:32:49 51°13.67 2°55.959 -999 342 13 101510 39
2010-04-07 08:32:54 51°13.67 2°55.96 -999 16 13 101510 39
2010-04-07 08:32:59 51°13.671 2°55.96 -999 1 13 101510 39
2010-04-07 08:33:04 51°13.671 2°55.959 0.1 25 13 101510 39
2010-04-07 08:33:09 51°13.671 2°55.959 0.3 351 13 101510 39
2010-04-07 08:33:14 51°13.671 2°55.959 0.1 31 13 101510 39
2010-04-07 08:33:19 51°13.671 2°55.959 2.1 24 13.1 101510 39
2010-04-07 08:33:24 51°13.671 2°55.959 2.6 17 13.1 101510 39
2010-04-07 08:33:29 51°13.671 2°55.959 1.5 20 13.1 101510 39
2010-04-07 08:33:34 51°13.67 2°55.96 1.5 355 13.1 101510 39
2010-04-07 08:33:39 51°13.67 2°55.96 1.5 4 13.1 101510 38
2010-04-07 08:33:44 51°13.67 2°55.959 0.2 8 13.1 101510 38
2010-04-07 08:33:49 51°13.67 2°55.959 0.2 12 13.1 101510 39
2010-04-07 08:33:54 51°13.67 2°55.959 0.7 18 13.1 101510 39
2010-04-07 08:33:59 51°13.67 2°55.959 1.6 12 13.1 101510 39
2010-04-07 08:34:04 51°13.67 2°55.959 1.1 7 13.1 101510 39
2010-04-07 08:34:09 51°13.669 2°55.959 0.2 12 13.1 101510 39
2010-04-07 08:34:14 51°13.669 2°55.959 0.1 22 13.1 101510 39
2010-04-07 08:34:19 51°13.669 2°55.959 1.6 18 13.1 101510 39
2010-04-07 08:34:24 51°13.668 2°55.96 1.3 13 13.1 101510 39
2010-04-07 08:34:29 51°13.668 2°55.96 1.8 12 13.1 101510 38
2010-04-07 08:34:34 51°13.668 2°55.96 1.3 16 13.1 101510 38
2010-04-07 08:34:39 51°13.668 2°55.96 0.3 -999 13.1 101510 37
2010-04-07 08:34:44 51°13.667 2°55.96 0.1 9 13.1 101510 37
2010-04-07 08:34:49 51°13.667 2°55.96 0.1 19 13.1 101510 38
2010-04-07 08:34:54 51°13.667 2°55.96 0.1 7 13.1 101510 38
2010-04-07 08:34:59 51°13.667 2°55.96 0.1 -999 13.1 101510 38
2010-04-07 08:35:04 51°13.667 2°55.96 -999 1 13.1 101510 38
2010-04-07 08:35:09 51°13.667 2°55.961 -999 358 13.1 101510 38
2010-04-07 08:35:14 51°13.666 2°55.961 2.7 10 13.1 101510 38
2010-04-07 08:35:19 51°13.666 2°55.961 2.2 6 13.1 101510 38
2010-04-07 08:35:24 51°13.666 2°55.961 2.1 15 13.1 101510 38
2010-04-07 08:35:29 51°13.666 2°55.961 1.5 18 13.2 101510 39
2010-04-07 08:35:34 51°13.665 2°55.961 2.2 9 13.2 101510 39
2010-04-07 08:35:39 51°13.665 2°55.962 2.2 2 13.2 101510 38
2010-04-07 08:35:44 51°13.665 2°55.961 2.1 3 13.2 101510 38
2010-04-07 08:35:49 51°13.665 2°55.961 1.7 8 13.2 101510 38
2010-04-07 08:35:54 51°13.665 2°55.961 1.7 6 13.2 101510 38
2010-04-07 08:35:59 51°13.665 2°55.961 1.9 18 13.2 101510 38
2010-04-07 08:36:04 51°13.665 2°55.961 1.1 353 13.2 101510 38
2010-04-07 08:36:09 51°13.665 2°55.961 0.2 1 13.2 101510 38
2010-04-07 08:36:14 51°13.665 2°55.961 0.1 9 13.2 101510 38
2010-04-07 08:36:19 51°13.664 2°55.961 0.1 19 13.2 101510 38
2010-04-07 08:36:24 51°13.664 2°55.962 2.7 16 13.2 101510 38
2010-04-07 08:36:29 51°13.664 2°55.962 2.9 21 13.2 101510 38
2010-04-07 08:36:34 51°13.664 2°55.962 2.6 16 13.2 101510 38
2010-04-07 08:36:39 51°13.664 2°55.962 3.1 17 13.2 101510 39
2010-04-07 08:36:44 51°13.664 2°55.962 2.5 13 13.2 101510 39
2010-04-07 08:36:49 51°13.664 2°55.961 2.2 16 13.2 101510 38
2010-04-07 08:36:54 51°13.664 2°55.961 1.2 8 13.2 101510 38
2010-04-07 08:36:59 51°13.665 2°55.961 1.8 15 13.2 101510 38
2010-04-07 08:37:04 51°13.665 2°55.961 1.8 3 13.2 101510 38
2010-04-07 08:37:09 51°13.665 2°55.961 1.9 11 13.2 101510 39
2010-04-07 08:37:14 51°13.665 2°55.961 1.5 11 13.2 101510 39
2010-04-07 08:37:19 51°13.665 2°55.961 1.4 10 13.2 101510 37
2010-04-07 08:37:24 51°13.665 2°55.961 0.2 17 13.2 101510 37
2010-04-07 08:37:29 51°13.665 2°55.961 0.1 9 13.2 101510 38
2010-04-07 08:37:34 51°13.665 2°55.961 0.1 6 13.2 101510 38
2010-04-07 08:37:39 51°13.665 2°55.961 -999 12 13.2 101510 38
2010-04-07 08:37:44 51°13.666 2°55.962 -999 18 13.2 101510 38
2010-04-07 08:37:49 51°13.666 2°55.961 1.4 355 13.2 101510 38
2010-04-07 08:37:54 51°13.666 2°55.961 0.2 9 13.2 101510 38
2010-04-07 08:37:59 51°13.666 2°55.961 2.3 18 13.2 101510 38
2010-04-07 08:38:04 51°13.666 2°55.961 1.7 7 13.2 101510 38
2010-04-07 08:38:09 51°13.666 2°55.961 1.5 2 13.2 101510 39
2010-04-07 08:38:14 51°13.666 2°55.961 2.4 14 13.2 101510 39
2010-04-07 08:38:19 51°13.666 2°55.961 2.2 20 13.2 101510 39
2010-04-07 08:38:24 51°13.666 2°55.961 2 26 13.2 101510 39
2010-04-07 08:38:29 51°13.665 2°55.961 2.2 17 13.2 101510 39
2010-04-07 08:38:34 51°13.665 2°55.961 2 21 13.2 101510 39
2010-04-07 08:38:39 51°13.665 2°55.961 2.1 22 13.3 101510 38
2010-04-07 08:38:44 51°13.665 2°55.962 2.2 20 13.3 101510 38
2010-04-07 08:38:49 51°13.666 2°55.961 2.1 20 13.3 101510 38
2010-04-07 08:38:54 51°13.666 2°55.961 2.1 18 13.3 101510 38
2010-04-07 08:38:59 51°13.666 2°55.961 2.2 20 13.3 101510 38
2010-04-07 08:39:04 51°13.665 2°55.96 1.9 21 13.3 101510 38
2010-04-07 08:39:09 51°13.665 2°55.961 2 13 13.3 101510 38
2010-04-07 08:39:14 51°13.665 2°55.96 1.7 17 13.3 101510 38
2010-04-07 08:39:19 51°13.666 2°55.96 1.8 12 13.3 101510 39
2010-04-07 08:39:24 51°13.666 2°55.96 1.2 5 13.3 101510 39
2010-04-07 08:39:29 51°13.666 2°55.96 0.2 8 13.3 101510 38
2010-04-07 08:39:34 51°13.666 2°55.96 0.1 27 13.3 101510 38
2010-04-07 08:39:39 51°13.665 2°55.959 1.4 8 13.3 101510 39
2010-04-07 08:39:44 51°13.665 2°55.96 0.1 14 13.3 101510 39
2010-04-07 08:39:49 51°13.665 2°55.96 1.9 9 13.3 101510 39
2010-04-07 08:39:54 51°13.665 2°55.96 0.9 7 13.3 101510 39
2010-04-07 08:39:59 51°13.665 2°55.959 0.2 16 13.3 101510 38
2010-04-07 08:40:04 51°13.665 2°55.959 0.1 18 13.3 101510 38
2010-04-07 08:40:09 51°13.664 2°55.959 -999 7 13.3 101510 39
2010-04-07 08:40:14 51°13.664 2°55.959 2.5 17 13.3 101510 39
2010-04-07 08:40:19 51°13.665 2°55.959 2.9 15 13.4 101510 38
2010-04-07 08:40:24 51°13.665 2°55.959 1.5 7 13.4 101510 38
2010-04-07 08:40:29 51°13.665 2°55.959 0.4 360 13.4 101510 37
2010-04-07 08:40:34 51°13.664 2°55.96 1.6 358 13.4 101510 37
2010-04-07 08:40:39 51°13.664 2°55.96 1.3 5 13.3 101510 38
2010-04-07 08:40:44 51°13.664 2°55.96 0.1 354 13.3 101510 38
2010-04-07 08:40:49 51°13.664 2°55.96 0.1 357 13.4 101510 38
2010-04-07 08:40:54 51°13.664 2°55.959 0.1 6 13.4 101510 38
2010-04-07 08:40:59 51°13.664 2°55.959 0.1 9 13.4 101510 38
2010-04-07 08:41:04 51°13.664 2°55.959 1.3 12 13.4 101510 38
2010-04-07 08:41:09 51°13.664 2°55.959 1.8 12 13.4 101510 38
2010-04-07 08:41:14 51°13.664 2°55.96 0.2 4 13.4 101510 38
2010-04-07 08:41:19 51°13.664 2°55.959 0.1 357 13.4 101510 38
2010-04-07 08:41:24 51°13.664 2°55.959 -999 357 13.4 101510 38
2010-04-07 08:41:29 51°13.664 2°55.959 -999 5 13.4 101510 38
2010-04-07 08:41:34 51°13.664 2°55.96 -999 33 13.4 101510 38
2010-04-07 08:41:39 51°13.664 2°55.959 -999 4 13.4 101510 38
2010-04-07 08:41:45 51°13.664 2°55.959 -999 13 13.4 101510 38
2010-04-07 08:41:49 51°13.664 2°55.959 -999 1 13.4 101510 39
2010-04-07 08:41:54 51°13.664 2°55.959 -999 13 13.4 101510 39
2010-04-07 08:41:59 51°13.664 2°55.96 -999 16 13.4 101510 38
2010-04-07 08:42:04 51°13.664 2°55.96 -999 354 13.4 101510 38
2010-04-07 08:42:09 51°13.664 2°55.96 -999 353 13.4 101510 39
2010-04-07 08:42:14 51°13.664 2°55.959 -999 350 13.4 101510 39
2010-04-07 08:42:19 51°13.664 2°55.959 -999 8 13.5 101510 38
2010-04-07 08:42:24 51°13.664 2°55.959 -999 359 13.5 101510 38
2010-04-07 08:42:29 51°13.664 2°55.959 -999 356 13.5 101510 39
2010-04-07 08:42:34 51°13.664 2°55.959 -999 354 13.5 101510 39
2010-04-07 08:42:39 51°13.664 2°55.959 -999 354 13.5 101510 38
2010-04-07 08:42:44 51°13.664 2°55.959 -999 357 13.5 101510 38
2010-04-07 08:42:49 51°13.664 2°55.959 -999 359 13.5 101510 38
2010-04-07 08:42:54 51°13.664 2°55.959 -999 5 13.5 101510 38
2010-04-07 08:42:59 51°13.664 2°55.958 -999 7 13.5 101510 39
2010-04-07 08:43:04 51°13.664 2°55.958 -999 18 13.5 101510 39
2010-04-07 08:43:09 51°13.664 2°55.958 -999 16 13.5 101510 38
2010-04-07 08:43:14 51°13.664 2°55.958 -999 283 13.5 101510 38
2010-04-07 08:43:19 51°13.664 2°55.958 -999 1 13.5 101510 39
2010-04-07 08:43:24 51°13.664 2°55.958 0.1 343 13.5 101510 39
2010-04-07 08:43:29 51°13.664 2°55.958 0.1 350 13.5 101510 39
2010-04-07 08:43:34 51°13.664 2°55.958 0.1 347 13.5 101510 39
2010-04-07 08:43:39 51°13.664 2°55.958 -999 349 13.5 101510 39
2010-04-07 08:43:44 51°13.664 2°55.958 -999 350 13.5 101510 39
2010-04-07 08:43:49 51°13.664 2°55.958 -999 353 13.5 101510 38
2010-04-07 08:43:54 51°13.664 2°55.958 -999 1 13.5 101510 38
2010-04-07 08:43:59 51°13.664 2°55.958 2 358 13.5 101510 39
2010-04-07 08:44:04 51°13.664 2°55.958 2.1 355 13.5 101510 39
2010-04-07 08:44:09 51°13.664 2°55.958 1.8 355 13.6 101510 39
2010-04-07 08:44:14 51°13.664 2°55.959 2.3 356 13.6 101510 39
2010-04-07 08:44:19 51°13.664 2°55.958 1.9 356 13.5 101510 38
2010-04-07 08:44:24 51°13.664 2°55.958 1.8 356 13.5 101510 38
2010-04-07 08:44:29 51°13.664 2°55.958 2 10 13.6 101510 38
2010-04-07 08:44:34 51°13.664 2°55.958 0.5 352 13.6 101510 38
2010-04-07 08:44:40 51°13.663 2°55.958 0.2 351 13.6 101510 38
2010-04-07 08:44:44 51°13.663 2°55.958 0.1 1 13.6 101510 38
2010-04-07 08:44:49 51°13.663 2°55.958 0.1 356 13.6 101510 38
2010-04-07 08:44:54 51°13.663 2°55.957 -999 339 13.6 101510 38
2010-04-07 08:44:59 51°13.663 2°55.958 -999 349 13.6 101510 38
2010-04-07 08:45:04 51°13.663 2°55.958 1.9 350 13.6 101510 38
2010-04-07 08:45:09 51°13.663 2°55.957 1.1 356 13.6 101510 39
2010-04-07 08:45:14 51°13.662 2°55.958 0.1 353 13.6 101510 39
2010-04-07 08:45:19 51°13.662 2°55.958 0.1 -999 13.6 101510 38
2010-04-07 08:45:24 51°13.662 2°55.958 -999 353 13.6 101510 38
2010-04-07 08:45:29 51°13.662 2°55.958 0.1 -999 13.6 101510 39
2010-04-07 08:45:34 51°13.662 2°55.958 1.6 359 13.6 101510 39
2010-04-07 08:45:39 51°13.662 2°55.958 1.4 3 13.6 101510 38
2010-04-07 08:45:44 51°13.662 2°55.958 1.9 356 13.6 101510 38
2010-04-07 08:45:49 51°13.662 2°55.959 1.9 356 13.6 101510 38
2010-04-07 08:45:54 51°13.662 2°55.958 0.5 359 13.6 101510 38
2010-04-07 08:45:59 51°13.662 2°55.958 0.1 5 13.6 101510 39
2010-04-07 08:46:04 51°13.662 2°55.958 0.1 24 13.6 101510 39
2010-04-07 08:46:09 51°13.662 2°55.959 0.1 29 13.6 101510 38
2010-04-07 08:46:14 51°13.662 2°55.958 1.3 20 13.6 101510 38
2010-04-07 08:46:19 51°13.662 2°55.959 1.8 13 13.6 101510 38
2010-04-07 08:46:24 51°13.662 2°55.958 1.3 6 13.6 101510 38
2010-04-07 08:46:29 51°13.662 2°55.959 0.3 24 13.6 101510 39
2010-04-07 08:46:34 51°13.662 2°55.959 0.1 356 13.6 101510 39
2010-04-07 08:46:39 51°13.662 2°55.959 0.1 23 13.6 101510 38
2010-04-07 08:46:44 51°13.662 2°55.959 -999 350 13.6 101510 38
2010-04-07 08:46:49 51°13.662 2°55.959 -999 350 13.6 101510 38
2010-04-07 08:46:54 51°13.662 2°55.959 -999 356 13.6 101510 38
2010-04-07 08:46:59 51°13.662 2°55.958 -999 352 13.6 101510 38
2010-04-07 08:47:04 51°13.662 2°55.958 -999 1 13.6 101510 38
2010-04-07 08:47:09 51°13.662 2°55.958 -999 358 13.6 101510 38
2010-04-07 08:47:14 51°13.662 2°55.958 -999 349 13.6 101510 38
2010-04-07 08:47:19 51°13.662 2°55.958 -999 355 13.7 101510 39
2010-04-07 08:47:24 51°13.662 2°55.959 -999 354 13.7 101510 39
2010-04-07 08:47:29 51°13.662 2°55.959 0.4 359 13.7 101510 39
2010-04-07 08:47:34 51°13.662 2°55.959 0.2 13 13.7 101510 39